When you browse on this site, cookies collect data to enhance your experience and personalize the content and advertising you see.
Visit our Privacy Policy to learn more. By continuing to use the site, you agree to this use of cookies and data.
  • In Österreich
  • Länderverzeichnis
  • Für 7 Tage
  • Wassertemperatur
  • Satellitenkarten
  • Wetterkarte
  • News
  • Widgets
  • user-avatar
    Anmelden

    Stündliche Wetter Coral Springs

    Heute, 27 Juni, Donnerstag

    Zeit Temperatur Niederschläge Wind Luftdruck Luftfeuchtigkeit
    00:00 +29°C° 0 mm 2 m/S 763 mmHg 72%
    01:00 +29°C° 0 mm 2 m/S 763 mmHg 72%
    02:00 +29°C° 0 mm 2 m/S 762 mmHg 73%
    03:00 +29°C° 0 mm 2 m/S 762 mmHg 74%
    04:00 +29°C° 0 mm 2 m/S 762 mmHg 75%
    05:00 +29°C° 0.1 mm 2 m/S 762 mmHg 74%
    06:00 +30°C° 0.1 mm 2 m/S 762 mmHg 73%
    07:00 +30°C° 0.1 mm 2 m/S 763 mmHg 72%
    08:00 +31°C° 0 mm 2 m/S 763 mmHg 64%
    09:00 +34°C° 0 mm 3 m/S 763 mmHg 56%
    10:00 +35°C° 0 mm 3 m/S 763 mmHg 48%
    11:00 +35°C° 0 mm 3 m/S 763 mmHg 47%
    12:00 +36°C° 0 mm 4 m/S 763 mmHg 45%
    13:00 +37°C° 0 mm 4 m/S 763 mmHg 43%
    14:00 +36°C° 0 mm 4 m/S 763 mmHg 45%
    15:00 +36°C° 0 mm 4 m/S 762 mmHg 46%
    16:00 +35°C° 0 mm 4 m/S 762 mmHg 47%
    17:00 +35°C° 0.1 mm 4 m/S 762 mmHg 51%
    18:00 +34°C° 0.1 mm 4 m/S 762 mmHg 55%
    19:00 +33°C° 0.1 mm 4 m/S 762 mmHg 59%
    20:00 +32°C° 0 mm 4 m/S 762 mmHg 62%
    21:00 +32°C° 0 mm 4 m/S 763 mmHg 66%
    22:00 +30°C° 0 mm 4 m/S 763 mmHg 69%
    23:00 +30°C° 0.1 mm 4 m/S 763 mmHg 70%

    Morgen, 28 Juni, Freitag

    Zeit Temperatur Niederschläge Wind Luftdruck Luftfeuchtigkeit
    00:00 +30°C° 0.1 mm 4 m/S 762 mmHg 70%
    01:00 +30°C° 0.1 mm 4 m/S 762 mmHg 71%
    02:00 +29°C° 0 mm 3 m/S 762 mmHg 72%
    03:00 +29°C° 0 mm 3 m/S 762 mmHg 72%
    04:00 +29°C° 0 mm 3 m/S 761 mmHg 73%
    05:00 +30°C° 0 mm 3 m/S 762 mmHg 72%
    06:00 +30°C° 0 mm 3 m/S 762 mmHg 71%
    07:00 +30°C° 0 mm 3 m/S 762 mmHg 70%
    08:00 +31°C° 0.1 mm 3 m/S 763 mmHg 65%
    09:00 +33°C° 0.1 mm 3 m/S 763 mmHg 60%
    10:00 +34°C° 0.1 mm 4 m/S 763 mmHg 55%
    11:00 +35°C° 0 mm 4 m/S 763 mmHg 54%
    12:00 +35°C° 0 mm 4 m/S 763 mmHg 52%
    13:00 +36°C° 0 mm 5 m/S 763 mmHg 51%
    14:00 +35°C° 0 mm 5 m/S 762 mmHg 51%
    15:00 +35°C° 0 mm 5 m/S 762 mmHg 52%
    16:00 +35°C° 0 mm 5 m/S 761 mmHg 53%
    17:00 +34°C° 0 mm 5 m/S 762 mmHg 56%
    18:00 +33°C° 0 mm 5 m/S 762 mmHg 59%
    19:00 +33°C° 0 mm 5 m/S 762 mmHg 61%
    20:00 +32°C° 0.1 mm 4 m/S 762 mmHg 63%
    21:00 +32°C° 0.1 mm 4 m/S 763 mmHg 64%
    22:00 +32°C° 0.1 mm 4 m/S 763 mmHg 65%
    23:00 +32°C° 0.1 mm 4 m/S 763 mmHg 65%

    übermorgen, 29 Juni, Samstag

    Zeit Temperatur Niederschläge Wind Luftdruck Luftfeuchtigkeit
    00:00 +32°C° 0.1 mm 4 m/S 762 mmHg 65%
    01:00 +31°C° 0.1 mm 3 m/S 762 mmHg 65%
    02:00 +31°C° 0 mm 3 m/S 762 mmHg 66%
    03:00 +31°C° 0 mm 3 m/S 762 mmHg 66%
    04:00 +31°C° 0 mm 3 m/S 761 mmHg 66%
    05:00 +30°C° 2 mm 3 m/S 762 mmHg 68%
    06:00 +29°C° 2 mm 4 m/S 762 mmHg 70%
    07:00 +29°C° 2 mm 4 m/S 763 mmHg 72%
    08:00 +29°C° 0.1 mm 3 m/S 763 mmHg 70%
    09:00 +30°C° 0.1 mm 3 m/S 763 mmHg 68%
    10:00 +30°C° 0.1 mm 2 m/S 764 mmHg 66%
    11:00 +30°C° 0 mm 2 m/S 764 mmHg 63%
    12:00 +31°C° 0 mm 3 m/S 764 mmHg 61%
    13:00 +31°C° 0 mm 3 m/S 764 mmHg 58%
    14:00 +33°C° 0 mm 3 m/S 763 mmHg 56%
    15:00 +33°C° 0 mm 3 m/S 763 mmHg 54%
    16:00 +33°C° 0 mm 4 m/S 763 mmHg 51%
    17:00 +33°C° 0 mm 4 m/S 763 mmHg 53%
    18:00 +31°C° 0 mm 3 m/S 763 mmHg 54%
    19:00 +31°C° 0 mm 3 m/S 763 mmHg 55%
    20:00 +30°C° 0 mm 4 m/S 763 mmHg 58%
    21:00 +30°C° 0 mm 4 m/S 763 mmHg 61%
    22:00 +30°C° 0 mm 4 m/S 764 mmHg 63%
    23:00 +30°C° 0 mm 4 m/S 763 mmHg 65%

    30 Juni, Sonntag

    Zeit Temperatur Niederschläge Wind Luftdruck Luftfeuchtigkeit
    00:00 +30°C° 0 mm 3 m/S 763 mmHg 66%
    01:00 +30°C° 0 mm 3 m/S 762 mmHg 67%
    02:00 +29°C° 0 mm 3 m/S 762 mmHg 69%
    03:00 +29°C° 0 mm 3 m/S 762 mmHg 70%
    04:00 +29°C° 0 mm 3 m/S 762 mmHg 71%
    05:00 +30°C° 1 mm 2 m/S 762 mmHg 71%
    06:00 +30°C° 1 mm 2 m/S 762 mmHg 70%
    07:00 +30°C° 1 mm 2 m/S 763 mmHg 70%
    08:00 +31°C° 0.7 mm 2 m/S 763 mmHg 63%
    09:00 +32°C° 0.7 mm 2 m/S 763 mmHg 56%
    10:00 +35°C° 0.7 mm 3 m/S 763 mmHg 49%
    11:00 +35°C° 0 mm 3 m/S 763 mmHg 49%
    12:00 +35°C° 0 mm 3 m/S 763 mmHg 48%
    13:00 +35°C° 0 mm 4 m/S 763 mmHg 48%
    14:00 +35°C° 0.1 mm 4 m/S 762 mmHg 49%
    15:00 +35°C° 0.1 mm 4 m/S 762 mmHg 51%
    16:00 +34°C° 0.1 mm 4 m/S 762 mmHg 53%
    17:00 +33°C° 0.4 mm 3 m/S 762 mmHg 56%
    18:00 +31°C° 0.4 mm 3 m/S 762 mmHg 59%
    19:00 +30°C° 0.4 mm 2 m/S 762 mmHg 62%
    20:00 +30°C° 0.2 mm 2 m/S 762 mmHg 62%
    21:00 +30°C° 0.2 mm 2 m/S 763 mmHg 62%
    22:00 +30°C° 0.2 mm 2 m/S 763 mmHg 62%
    23:00 +30°C° 0.1 mm 2 m/S 763 mmHg 64%

    1 Juli, Montag

    Zeit Temperatur Niederschläge Wind Luftdruck Luftfeuchtigkeit
    00:00 +30°C° 0.1 mm 2 m/S 762 mmHg 66%
    01:00 +29°C° 0.1 mm 1 m/S 762 mmHg 68%
    02:00 +29°C° 0 mm 1 m/S 762 mmHg 68%
    03:00 +29°C° 0 mm 1 m/S 762 mmHg 69%
    04:00 +29°C° 0 mm 1 m/S 762 mmHg 70%
    05:00 +29°C° 0.1 mm 1 m/S 762 mmHg 69%
    06:00 +29°C° 0.1 mm 1 m/S 762 mmHg 69%
    07:00 +29°C° 0.1 mm 1 m/S 762 mmHg 68%
    08:00 +31°C° 0.1 mm 1 m/S 763 mmHg 62%
    09:00 +32°C° 0.1 mm 1 m/S 763 mmHg 56%
    10:00 +34°C° 0.1 mm 1 m/S 763 mmHg 50%
    11:00 +34°C° 0 mm 1 m/S 763 mmHg 48%
    12:00 +36°C° 0 mm 2 m/S 763 mmHg 45%
    13:00 +37°C° 0 mm 2 m/S 763 mmHg 43%
    14:00 +36°C° 0.1 mm 3 m/S 762 mmHg 46%
    15:00 +35°C° 0.1 mm 3 m/S 762 mmHg 48%
    16:00 +34°C° 0.1 mm 3 m/S 762 mmHg 51%
    17:00 +34°C° 0.1 mm 3 m/S 761 mmHg 53%
    18:00 +32°C° 0.1 mm 2 m/S 761 mmHg 54%
    19:00 +32°C° 0.1 mm 2 m/S 761 mmHg 56%
    20:00 +32°C° 0 mm 2 m/S 762 mmHg 57%
    21:00 +31°C° 0 mm 2 m/S 762 mmHg 59%
    22:00 +31°C° 0 mm 2 m/S 762 mmHg 60%
    23:00 +31°C° 0 mm 2 m/S 762 mmHg 61%

    2 Juli, Dienstag

    Zeit Temperatur Niederschläge Wind Luftdruck Luftfeuchtigkeit
    00:00 +30°C° 0 mm 2 m/S 762 mmHg 61%
    01:00 +30°C° 0 mm 2 m/S 761 mmHg 62%
    02:00 +30°C° 0 mm 2 m/S 761 mmHg 64%
    03:00 +30°C° 0 mm 2 m/S 761 mmHg 65%
    04:00 +29°C° 0 mm 2 m/S 761 mmHg 66%
    05:00 +30°C° 0 mm 2 m/S 761 mmHg 66%
    06:00 +30°C° 0 mm 2 m/S 761 mmHg 65%
    07:00 +30°C° 0 mm 1 m/S 762 mmHg 65%
    08:00 +31°C° 0.4 mm 1 m/S 762 mmHg 60%
    09:00 +33°C° 0.4 mm 1 m/S 762 mmHg 56%
    10:00 +34°C° 0.4 mm 1 m/S 762 mmHg 52%
    11:00 +35°C° 0.2 mm 2 m/S 762 mmHg 50%
    12:00 +36°C° 0.2 mm 2 m/S 762 mmHg 48%
    13:00 +36°C° 0.2 mm 2 m/S 762 mmHg 47%
    14:00 +36°C° 0.5 mm 2 m/S 762 mmHg 48%
    15:00 +36°C° 0.5 mm 2 m/S 761 mmHg 50%
    16:00 +35°C° 0.5 mm 3 m/S 761 mmHg 51%
    17:00 +34°C° 1 mm 3 m/S 761 mmHg 54%
    18:00 +34°C° 1 mm 3 m/S 760 mmHg 58%
    19:00 +33°C° 1 mm 3 m/S 760 mmHg 61%
    20:00 +33°C° 0.6 mm 3 m/S 761 mmHg 63%
    21:00 +31°C° 0.6 mm 2 m/S 761 mmHg 65%
    22:00 +31°C° 0.6 mm 2 m/S 761 mmHg 68%
    23:00 +30°C° 0.8 mm 3 m/S 761 mmHg 70%
    Mehr zeigen